Meteo orario Alimena

Oggi, 28 Ottobre, Mercoledi

Tempo Temperatura Precipitazioni Vento Pressione Umidità
00:00 +9°C° 0 mm 3 m/s 696 mm Hg 84%
01:00 +9°C° 0 mm 3 m/s 696 mm Hg 85%
02:00 +9°C° 0 mm 3 m/s 696 mm Hg 84%
03:00 +8°C° 0 mm 3 m/s 696 mm Hg 84%
04:00 +8°C° 0 mm 3 m/s 695 mm Hg 84%
05:00 +8°C° 0.1 mm 3 m/s 696 mm Hg 85%
06:00 +8°C° 0.1 mm 3 m/s 696 mm Hg 85%
07:00 +8°C° 0.1 mm 3 m/s 696 mm Hg 86%
08:00 +10°C° 0 mm 4 m/s 697 mm Hg 78%
09:00 +11°C° 0 mm 4 m/s 697 mm Hg 70%
10:00 +13°C° 0 mm 5 m/s 698 mm Hg 62%
11:00 +13°C° 0 mm 5 m/s 698 mm Hg 60%
12:00 +14°C° 0 mm 5 m/s 698 mm Hg 57%
13:00 +15°C° 0 mm 5 m/s 698 mm Hg 55%
14:00 +14°C° 0 mm 5 m/s 698 mm Hg 58%
15:00 +14°C° 0 mm 5 m/s 699 mm Hg 60%
16:00 +13°C° 0 mm 5 m/s 699 mm Hg 63%
17:00 +12°C° 0.1 mm 5 m/s 699 mm Hg 69%
18:00 +12°C° 0.1 mm 4 m/s 699 mm Hg 75%
19:00 +11°C° 0.1 mm 4 m/s 699 mm Hg 81%
20:00 +11°C° 0 mm 4 m/s 700 mm Hg 83%
21:00 +10°C° 0 mm 3 m/s 700 mm Hg 85%
22:00 +10°C° 0 mm 3 m/s 700 mm Hg 87%
23:00 +10°C° 0 mm 3 m/s 700 mm Hg 88%

Domani, 29 Ottobre, Giovedi

Tempo Temperatura Precipitazioni Vento Pressione Umidità
00:00 +9°C° 0 mm 2 m/s 700 mm Hg 89%
01:00 +9°C° 0 mm 2 m/s 700 mm Hg 90%
02:00 +9°C° 0 mm 2 m/s 700 mm Hg 90%
03:00 +9°C° 0 mm 2 m/s 700 mm Hg 90%
04:00 +8°C° 0 mm 2 m/s 700 mm Hg 90%
05:00 +8°C° 0 mm 2 m/s 700 mm Hg 89%
06:00 +8°C° 0 mm 2 m/s 701 mm Hg 88%
07:00 +8°C° 0 mm 2 m/s 701 mm Hg 87%
08:00 +10°C° 0 mm 2 m/s 702 mm Hg 77%
09:00 +13°C° 0 mm 2 m/s 702 mm Hg 66%
10:00 +14°C° 0 mm 3 m/s 703 mm Hg 56%
11:00 +16°C° 0 mm 3 m/s 703 mm Hg 51%
12:00 +17°C° 0 mm 3 m/s 703 mm Hg 47%
13:00 +18°C° 0 mm 3 m/s 703 mm Hg 42%
14:00 +18°C° 0 mm 3 m/s 703 mm Hg 46%
15:00 +17°C° 0 mm 3 m/s 703 mm Hg 49%
16:00 +17°C° 0 mm 2 m/s 703 mm Hg 52%
17:00 +16°C° 0 mm 2 m/s 703 mm Hg 59%
18:00 +14°C° 0 mm 2 m/s 703 mm Hg 65%
19:00 +13°C° 0 mm 1 m/s 702 mm Hg 72%
20:00 +13°C° 0 mm 1 m/s 703 mm Hg 73%
21:00 +12°C° 0 mm 1 m/s 703 mm Hg 73%
22:00 +12°C° 0 mm 1 m/s 703 mm Hg 74%
23:00 +12°C° 0 mm 1 m/s 702 mm Hg 75%

Dopodomani, 30 Ottobre, Venerdi

Tempo Temperatura Precipitazioni Vento Pressione Umidità
00:00 +12°C° 0 mm 1 m/s 702 mm Hg 75%
01:00 +11°C° 0 mm 1 m/s 702 mm Hg 75%
02:00 +11°C° 0 mm 1 m/s 702 mm Hg 77%
03:00 +11°C° 0 mm 1 m/s 702 mm Hg 79%
04:00 +11°C° 0 mm 1 m/s 702 mm Hg 80%
05:00 +11°C° 0 mm 1 m/s 702 mm Hg 81%
06:00 +11°C° 0 mm 1 m/s 702 mm Hg 82%
07:00 +11°C° 0 mm 1 m/s 702 mm Hg 83%
08:00 +13°C° 0 mm 1 m/s 702 mm Hg 76%
09:00 +15°C° 0 mm 1 m/s 703 mm Hg 70%
10:00 +16°C° 0 mm 1 m/s 703 mm Hg 63%
11:00 +18°C° 0 mm 1 m/s 703 mm Hg 60%
12:00 +19°C° 0 mm 1 m/s 703 mm Hg 57%
13:00 +19°C° 0 mm 1 m/s 703 mm Hg 54%
14:00 +19°C° 0 mm 1 m/s 703 mm Hg 59%
15:00 +18°C° 0 mm 1 m/s 703 mm Hg 63%
16:00 +18°C° 0 mm 1 m/s 703 mm Hg 67%
17:00 +16°C° 0 mm 1 m/s 702 mm Hg 70%
18:00 +15°C° 0 mm 1 m/s 702 mm Hg 74%
19:00 +15°C° 0 mm 1 m/s 702 mm Hg 77%
20:00 +14°C° 0 mm 1 m/s 702 mm Hg 78%
21:00 +14°C° 0 mm 1 m/s 703 mm Hg 78%
22:00 +14°C° 0 mm 1 m/s 703 mm Hg 79%
23:00 +13°C° 0 mm 1 m/s 702 mm Hg 81%

31 Ottobre, Sabato

Tempo Temperatura Precipitazioni Vento Pressione Umidità
00:00 +13°C° 0 mm 1 m/s 702 mm Hg 83%
01:00 +12°C° 0 mm 1 m/s 702 mm Hg 85%
02:00 +12°C° 0 mm 1 m/s 702 mm Hg 85%
03:00 +12°C° 0 mm 1 m/s 702 mm Hg 86%
04:00 +11°C° 0 mm 1 m/s 702 mm Hg 86%
05:00 +12°C° 0 mm 1 m/s 702 mm Hg 85%
06:00 +12°C° 0 mm 1 m/s 702 mm Hg 85%
07:00 +12°C° 0 mm 1 m/s 702 mm Hg 84%
08:00 +14°C° 0 mm 1 m/s 703 mm Hg 76%
09:00 +14°C° 0 mm 0 m/s 703 mm Hg 67%
10:00 +16°C° 0 mm 0 m/s 704 mm Hg 59%
11:00 +17°C° 0 mm 0 m/s 704 mm Hg 55%
12:00 +20°C° 0 mm 1 m/s 703 mm Hg 51%
13:00 +21°C° 0 mm 1 m/s 703 mm Hg 47%
14:00 +20°C° 0 mm 1 m/s 703 mm Hg 51%
15:00 +20°C° 0 mm 1 m/s 703 mm Hg 54%
16:00 +18°C° 0 mm 2 m/s 703 mm Hg 58%
17:00 +17°C° 0 mm 2 m/s 702 mm Hg 66%
18:00 +15°C° 0 mm 1 m/s 702 mm Hg 74%
19:00 +14°C° 0 mm 1 m/s 702 mm Hg 82%
20:00 +14°C° 0 mm 1 m/s 702 mm Hg 82%
21:00 +13°C° 0 mm 1 m/s 702 mm Hg 82%
22:00 +13°C° 0 mm 1 m/s 702 mm Hg 82%
23:00 +13°C° 0 mm 1 m/s 702 mm Hg 81%

1 Novenbre, Domenica

Tempo Temperatura Precipitazioni Vento Pressione Umidità
00:00 +12°C° 0 mm 1 m/s 702 mm Hg 79%
01:00 +12°C° 0 mm 1 m/s 702 mm Hg 78%
02:00 +12°C° 0 mm 1 m/s 702 mm Hg 77%
03:00 +12°C° 0 mm 1 m/s 702 mm Hg 76%
04:00 +12°C° 0 mm 1 m/s 702 mm Hg 76%
05:00 +12°C° 0 mm 1 m/s 702 mm Hg 76%
06:00 +11°C° 0 mm 1 m/s 702 mm Hg 77%
07:00 +11°C° 0 mm 1 m/s 702 mm Hg 78%
08:00 +13°C° 0 mm 1 m/s 702 mm Hg 69%
09:00 +15°C° 0 mm 1 m/s 703 mm Hg 59%
10:00 +19°C° 0 mm 1 m/s 703 mm Hg 50%
11:00 +20°C° 0 mm 1 m/s 703 mm Hg 46%
12:00 +21°C° 0 mm 1 m/s 704 mm Hg 42%
13:00 +22°C° 0 mm 1 m/s 704 mm Hg 38%
14:00 +21°C° 0 mm 1 m/s 703 mm Hg 41%
15:00 +19°C° 0 mm 2 m/s 703 mm Hg 45%
16:00 +19°C° 0 mm 2 m/s 703 mm Hg 49%
17:00 +18°C° 0 mm 1 m/s 703 mm Hg 57%
18:00 +16°C° 0 mm 1 m/s 703 mm Hg 65%
19:00 +14°C° 0 mm 1 m/s 703 mm Hg 73%
20:00 +14°C° 0 mm 1 m/s 703 mm Hg 73%
21:00 +13°C° 0 mm 1 m/s 703 mm Hg 73%
22:00 +13°C° 0 mm 1 m/s 703 mm Hg 72%
23:00 +13°C° 0 mm 1 m/s 703 mm Hg 71%

2 Novenbre, Lunedi

Tempo Temperatura Precipitazioni Vento Pressione Umidità
00:00 +12°C° 0 mm 1 m/s 703 mm Hg 70%
01:00 +11°C° 0 mm 0 m/s 702 mm Hg 68%
02:00 +11°C° 0 mm 0 m/s 702 mm Hg 68%
03:00 +11°C° 0 mm 0 m/s 702 mm Hg 67%
04:00 +11°C° 0 mm 0 m/s 702 mm Hg 66%
05:00 +11°C° 0 mm 0 m/s 702 mm Hg 66%
06:00 +11°C° 0 mm 0 m/s 702 mm Hg 65%
07:00 +11°C° 0 mm 0 m/s 702 mm Hg 64%
08:00 +13°C° 0 mm 0 m/s 703 mm Hg 58%
09:00 +15°C° 0 mm 0 m/s 703 mm Hg 52%
10:00 +17°C° 0 mm 0 m/s 704 mm Hg 46%
11:00 +20°C° 0 mm 1 m/s 704 mm Hg 44%
12:00 +21°C° 0 mm 1 m/s 704 mm Hg 42%
13:00 +20°C° 0 mm 2 m/s 704 mm Hg 40%
14:00 +20°C° 0 mm 2 m/s 703 mm Hg 44%
15:00 +19°C° 0 mm 2 m/s 703 mm Hg 48%
16:00 +19°C° 0 mm 2 m/s 703 mm Hg 52%
17:00 +18°C° 0 mm 1 m/s 702 mm Hg 62%
18:00 +16°C° 0 mm 1 m/s 702 mm Hg 71%
19:00 +13°C° 0 mm 0 m/s 702 mm Hg 81%
20:00 +13°C° 0 mm 0 m/s 702 mm Hg 83%
21:00 +12°C° 0 mm 0 m/s 702 mm Hg 84%
22:00 +12°C° 0 mm 0 m/s 702 mm Hg 86%
23:00 +12°C° 0 mm 0 m/s 702 mm Hg 86%
Mostrare altro

Abbiamo bisogno del tuo consenso

Meteoprog e i nostri fornitori di servizi possono memorizzare e accedere a dati personali come cookie, identificatori di dispositivi o altre tecnologie simili sul tuo dispositivo e possono elaborare tali dati per personalizzare i contenuti e gli annunci, nonché fornire funzionalità dei social media e analizzarne il traffico.

  • Archiviare e/o accedere alle informazioni sul tuo dispositivo

    Cookie, identificatori di dispositivi o altre informazioni possono essere memorizzati o resi accessibili sul tuo dispositivo per le finalità sopra indicate.

  • Annunci e contenuti personalizzati, misurazione di annunci e contenuti, approfondimenti sul pubblico e sviluppo di prodotti

    Gli annunci e i contenuti possono essere personalizzati in base a un profilo. È possibile aggiungere più dati per personalizzare meglio annunci e contenuti. È possibile misurare il rendimento degli annunci e dei contenuti. È possibile ricavare informazioni sul pubblico che ha visto gli annunci e i contenuti. Tali dati possono essere utilizzati per sviluppare o migliorare l'esperienza, i sistemi e il software dell'utente.

Cliccando su “Accetto”, acconsenti all'uso di cookie, identificatori di dispositivo, web beacon o altre tecnologie simili. Puoi modificare le impostazioni nel browser del tuo dispositivo.

Per determinati scopi, è possibile fare affidamento su interessi legali, piuttosto che sul consenso. Puoi approfondire questo argomento consultando la nostra Informativa sulla privacy e sui cookie.